{"data":{"norad_id":64529,"epoch":"2026-09-21T20:29:29.203872Z","epoch_age_seconds":64552,"freshness":"FRESH","line1":"1 64529U 25135B   26264.85381023  .00002243  00000+0  10493-3 0  9992","line2":"2 64529  97.4824  18.8841 0004748 178.0303 182.0951 15.20796988 69519","mean_motion":15.20796988,"eccentricity":0.0004748,"inclination_deg":97.4824,"raan_deg":18.8841,"arg_perigee_deg":178.0303,"mean_anomaly_deg":182.0951,"bstar":0.00010493,"rev_number":6951,"period_min":94.687194369956,"perigee_km":500.1679575031,"apogee_km":506.70269858582,"semimajor_km":6881.5723280445,"source":"CELESTRAK","updated_at":"2026-09-22T09:00:29.814953Z"}}